IRIDIUM 3 [P] (25431 NORAD) Tracking and Keplerian Element Data

This shows tracking and keplerian element data for the satellite.

Feedback or suggestion? Click here.




ElementValue
Catalog25431
NameIRIDIUM 3 [P]
Epoch Orbit1977
Epoch Day39.68901606
Epoch Year2018
RAAN154.9265
Inclination86.3557
Eccentricity0.0051746
Argument of Perigee279.7408
Mean Anonmoly80.8369
Mean Motion16.45548534
Decay Rate0.15407232
L11 25431U 98048A 18039.68901606 .15407232 -13618-5 14806-3 0 9992
L22 25431 86.3557 154.9265 0051746 279.7408 80.8369 16.45548534 19776



Live tracking and technical data element details for IRIDIUM 3 [P] (NORAD 25431). IRIDIUM 3 [P] can be tracked NOW for your location showing map with azimuth and elevation plus other details from your city location.







IsCatalogInMostPopularTable: catalog: 25431, numindb: 439
Update: records affected: 1



GetName: 25431 IRIDIUM 3 [P]

Hit Count: updated at: Thu, 15 May 2025 10:32:51 GMT